Location: Ida Center
(41.8662°N, 83.5713°W)
Time: 12:42:03
(UTC+00:00)

Meteor 2-2 Rocket - Pass Details

Date: 17 November 2019
Orbit: 852 x 929 km, 81.3° (Epoch: 14 December)

Event Time Altitude Azimuth Distance (km) Brightness Sun altitude
Rises 22:36:42 0° 182° (S) 3,516 7.8 -5.1°
Reaches altitude 10° 22:39:11 10° 181° (S) 2,569 7.0 -5.5°
Maximum altitude 22:45:00 74° 97° (E) 925 4.3 -6.5°
Drops below altitude 10° 22:50:45 10° 13° (NNE) 2,533 6.4 -7.5°
Sets 22:53:10 0° 12° (NNE) 3,465 7.1 -7.9°
